Regional Weather Roundup
Issued by NWS

Home | Current Version | Previous Version | Graphics & Text | Print | Product List | Glossary On
Versions: 1 2 3 4 5 6 7 8 9 10 11 12 13 14 15 16 17 18 19 20 21 22 23 24 25 26 27 28 29 30 31 32 33 34 35 36 37 38 39 40 41 42 43 44 45 46 47 48 49 50
397
ASUS43 KFSD 290102
RWRSD

WEATHER ROUNDUP FOR SOUTH DAKOTA
NATIONAL WEATHER SERVICE SIOUX FALLS SD
800 PM CDT SUN MAY 28 2017

NOTE: "FAIR" INDICATES FEW OR NO CLOUDS BELOW 12,000 FEET WITH NO
SIGNIFICANT WEATHER AND/OR OBSTRUCTIONS TO VISIBILITY.


SDZ001>005-009-010-012>017-290200-
NORTHWEST AND NORTH CENTRAL SOUTH DAKOTA

CITY           SKY/WX    TMP DP  RH WIND       PRES   REMARKS
BUFFALO          N/A     69  31  24 N26G38    29.94R
FAITH            N/A     70  31  23 N24G35    29.94R
MOBRIDGE       SUNNY     71  33  24 N23G32    29.86R
$$

SDZ012>016-024>037-041>051-057-063-072>074-290200-
SOUTHWEST AND SOUTH CENTRAL SOUTH DAKOTA

CITY           SKY/WX    TMP DP  RH WIND       PRES   REMARKS
RAPID CTY ARPT PTSUNNY   65  48  54 W7        30.02F
PIERRE         MOSUNNY   69  43  38 W16       29.88S
CUSTER         CLOUDY    55  37  50 NW9G21    30.14R
ELLSWORTH AFB  PTSUNNY   66  42  42 NW12      30.01F
PHILIP         LGT RAIN  68  43  40 W17G25    29.95F
PINE RIDGE     LGT RAIN  53  51  93 SE8       30.10F
SPEARFISH      FAIR      59  45  58 W14G21    30.08S
WINNER         FAIR      68  46  45 W13       29.94F
$$

SDZ004>011-016>023-039-040-290200-
NORTHEAST SOUTH DAKOTA

CITY           SKY/WX    TMP DP  RH WIND       PRES   REMARKS
ABERDEEN       MOSUNNY   64  40  41 N22G30    29.86R
WATERTOWN      CLOUDY    58  50  75 SW6       29.85S
BROOKINGS      CLOUDY    55  49  80 NE3       29.86F
SISSETON         N/A     63  47  55 NW25G35   29.78R
$$

SDZ017-020-022-023-036>040-048>070-290200-
SOUTHEAST SOUTH DAKOTA

CITY           SKY/WX    TMP DP  RH WIND       PRES   REMARKS
SIOUX FALLS    LGT RAIN  59  48  67 N17G26    29.88R
HURON          CLOUDY    63  48  58 N6        29.85R
CHAMBERLAIN    MOSUNNY   71  42  34 W12G18    29.89S
MITCHELL       PTCLDY    74  39  28 W17G24    29.85S
YANKTON        CLEAR     72  42  34 W9        29.86F
$$

ABBREVIATIONS USED IN REMARKS
   TC - TEMPERATURE IN CELSIUS
  WCI - WIND CHILL INDEX
   HX - HEAT INDEX
  VSB - VISIBILITY





USA.gov is the U.S. government's official web portal to all federal, state and local government web resources and services.